sat.trackr.live / text

‹ back to catalog

STARLINK-30453

NORAD 57910 · 2023-146V

PAYLOAD ACTIVE UNKNOWN

§ Identity

Operator
Country
US
Launch date
2023-09-20
Launch site
AFETR
Launch vehicle
Mass (kg)
RCS (m²)

Purposes: comms

External: N2YO · Heavens-Above · Gunter

§ Orbital elements

Epoch: 2026-09-20T10:02:53.999520Z

Period
94.27 min
Inclination
43.0032°
Eccentricity
0.0001455
Mean motion
15.27578975 rev/d
Perigee alt
482.1 km
Apogee alt
484.1 km
Semi-major
6,861.2 km
B*
2.2207e-5
RAAN
291.4024°
Arg perigee
267.2252°
Mean anomaly
92.8433°
Rev number
16,581

§ Raw data

STARLINK-304531 57910U 23146V   26263.41868055  .00000349  00000+0  22207-4 0  99962 57910  43.0032 291.4024 0001455 267.2252  92.8433 15.27578975165815

JSON: /api/v1/satellites/57910 · /tle

For live sub-satellite position, see the globe view (requires WebGL).

§ Visibility from observer

Set your observer location to see the next 7 days of passes ≥ 10°. The values pass through the URL so the page stays shareable.

No JS? Fill the form by hand. The geolocation button needs JavaScript.